TimeMST,TemperatureF,Dew PointF,Humidity,Sea Level PressureIn,VisibilityMPH,Wind Direction,Wind SpeedMPH,Gust SpeedMPH,PrecipitationIn,Events,Conditions,WindDirDegrees,DateUTC
12:53 AM,82.9,36.0,19,29.74,10.0,East,3.5,-,N/A,,Clear,100,2013-06-21 07:53:00
1:53 AM,81.0,33.1,18,29.74,10.0,SSE,6.9,-,N/A,,Clear,150,2013-06-21 08:53:00
2:53 AM,78.1,35.1,21,29.75,10.0,SSE,8.1,-,N/A,,Clear,150,2013-06-21 09:53:00
3:53 AM,75.9,35.1,23,29.75,10.0,SSE,9.2,-,N/A,,Clear,160,2013-06-21 10:53:00
4:53 AM,73.0,33.1,23,29.77,10.0,SSE,8.1,-,N/A,,Clear,160,2013-06-21 11:53:00
5:53 AM,73.9,34.0,23,29.78,10.0,SE,9.2,-,N/A,,Clear,130,2013-06-21 12:53:00
6:53 AM,80.1,35.1,20,29.79,10.0,SSE,8.1,-,N/A,,Clear,150,2013-06-21 13:53:00
7:53 AM,84.9,35.1,17,29.80,10.0,SSE,10.4,-,N/A,,Clear,160,2013-06-21 14:53:00
8:53 AM,90.0,35.1,14,29.80,10.0,SSE,8.1,-,N/A,,Clear,150,2013-06-21 15:53:00
9:53 AM,93.0,25.0,9,29.79,10.0,SSW,8.1,20.7,N/A,,Clear,200,2013-06-21 16:53:00
10:53 AM,97.0,19.9,6,29.78,10.0,SSW,16.1,20.7,N/A,,Clear,200,2013-06-21 17:53:00
11:53 AM,99.0,21.0,6,29.76,10.0,SSE,9.2,18.4,N/A,,Clear,150,2013-06-21 18:53:00
12:53 PM,100.9,14.0,4,29.74,10.0,West,10.4,21.9,N/A,,Clear,260,2013-06-21 19:53:00
1:53 PM,102.9,3.9,4,29.73,10.0,West,17.3,26.5,N/A,,Clear,270,2013-06-21 20:53:00
2:53 PM,104.0,3.9,4,29.71,10.0,SW,15.0,27.6,N/A,,Clear,220,2013-06-21 21:53:00
3:53 PM,102.9,6.1,4,29.70,10.0,WSW,20.7,26.5,N/A,,Clear,240,2013-06-21 22:53:00
4:53 PM,102.0,9.0,4,29.69,10.0,WSW,12.7,-,N/A,,Clear,250,2013-06-21 23:53:00
5:53 PM,100.9,3.9,4,29.68,10.0,SW,17.3,24.2,N/A,,Clear,220,2013-06-22 00:53:00
6:53 PM,99.0,6.1,4,29.67,10.0,WSW,12.7,-,N/A,,Clear,240,2013-06-22 01:53:00
7:53 PM,95.0,16.0,6,29.69,10.0,WSW,5.8,-,N/A,,Clear,240,2013-06-22 02:53:00
8:53 PM,91.9,25.0,9,29.71,10.0,WNW,4.6,-,N/A,,Clear,290,2013-06-22 03:53:00
9:53 PM,89.1,28.9,12,29.72,10.0,Variable,4.6,-,N/A,,Clear,0,2013-06-22 04:53:00
10:53 PM,86.0,30.9,14,29.73,10.0,SW,5.8,-,N/A,,Clear,220,2013-06-22 05:53:00
11:53 PM,82.9,28.0,14,29.74,10.0,SE,6.9,-,N/A,,Clear,140,2013-06-22 06:53:00